Cisne Branco — PWCB — position and weather

sailwx.info

Track history (hours):
 
Tides and Currents Weather Stations Pressure Air Temp Water Temp Dewpoint Dewpoint Depression Visibility Wind Speed Wind Dir Waves Ship Positions

Cisne Branco (Brazil)

Last reported at 2017-Jul-25 20:49 UTC. Time now 2017-Jul-28 06:37 UTC.
Position N 56°25' E 019°03'.

Length 78 m; draft 4.8 m.

Type: Sailing vessel. MMSI: 710428000.

Date/timePositionNaut miles runAvg speedWind from/ knotsBaromVisibWave heightAir tempDewpointWater temp
2017-Jul-25 20:49N 56°25' E 019°03'1610.0
2017-Jul-25 19:14N 56°35' E 018°41'2 9.3
2017-Jul-25 19:00N 56°37' E 018°38'6 9.1
2017-Jul-25 18:21N 56°40' E 018°29'5 8.4
2017-Jul-25 17:48N 56°43' E 018°22'2 7.8
2017-Jul-25 17:31N 56°44' E 018°19'138 6.5
2017-Jul-24 20:27N 58°56' E 019°33'4 7.6
2017-Jul-24 19:58N 58°59' E 019°39'4 7.5
2017-Jul-24 19:24N 59°02' E 019°45'3 6.9
2017-Jul-24 18:59N 59°04' E 019°49'4 7.1
2017-Jul-24 18:30N 59°06' E 019°54'3 7.0
2017-Jul-24 18:00N 59°08' E 019°60'3 6.7
2017-Jul-24 17:30N 59°10' E 020°05'4 6.9
2017-Jul-24 16:59N 59°12' E 020°10'3 7.2
2017-Jul-24 16:30N 59°14' E 020°15'4 7.8
2017-Jul-24 16:01N 59°16' E 020°22'23 7.7
2017-Jul-24 13:00N 59°31' E 020°57'3 6.2
2017-Jul-24 12:31N 59°33' E 021°01'3 5.9
2017-Jul-24 12:01N 59°35' E 021°06'3 6.2
2017-Jul-24 11:31N 59°36' E 021°11'3 5.7
2017-Jul-24 11:01N 59°38' E 021°16'2 3.4
2017-Jul-24 10:31N 59°39' E 021°18'3 5.6
2017-Jul-24 10:01N 59°42' E 021°16'2 3.5
2017-Jul-24 09:31N 59°43' E 021°13'1 1.2
2017-Jul-24 09:01N 59°44' E 021°14'0 0.5
2017-Jul-24 08:28N 59°44' E 021°14'0 0.0
2017-Jul-24 08:00N 59°44' E 021°14'0 0.0
2017-Jul-24 07:30N 59°44' E 021°14'0 0.0
2017-Jul-24 06:58N 59°44' E 021°14'0 0.0
2017-Jul-24 06:29N 59°44' E 021°14'0 0.0
2017-Jul-24 05:58N 59°44' E 021°14'0 0.0
2017-Jul-24 05:30N 59°44' E 021°14'0 0.0
2017-Jul-24 04:57N 59°44' E 021°14'0 0.0
2017-Jul-24 04:29N 59°44' E 021°14'0 0.0
2017-Jul-24 03:59N 59°44' E 021°14'0 0.0
2017-Jul-24 03:30N 59°44' E 021°14'0 0.0
2017-Jul-24 03:00N 59°44' E 021°14'0 0.0
2017-Jul-24 02:28N 59°44' E 021°14'0 0.0
2017-Jul-24 01:59N 59°44' E 021°14'0 0.0
2017-Jul-24 01:30N 59°44' E 021°14'0 0.0
2017-Jul-24 00:59N 59°44' E 021°14'0 0.0
2017-Jul-24 00:31N 59°44' E 021°14'0 0.0
2017-Jul-23 23:59N 59°44' E 021°14'0 0.0
2017-Jul-23 23:28N 59°44' E 021°14'0 0.0
2017-Jul-23 22:58N 59°44' E 021°14'0 0.0
2017-Jul-23 22:29N 59°44' E 021°14'0 0.0
2017-Jul-23 21:59N 59°44' E 021°14'0 0.0
2017-Jul-23 21:29N 59°44' E 021°14'0 0.1
2017-Jul-23 21:00N 59°44' E 021°14'2 3.1
2017-Jul-23 20:30N 59°44' E 021°17'3 6.5
2017-Jul-23 20:00N 59°47' E 021°21'4 8.1
2017-Jul-23 19:30N 59°50' E 021°24'4 8.5
2017-Jul-23 19:00N 59°53' E 021°31'4 8.7
2017-Jul-23 18:30N 59°55' E 021°38'4 8.7
2017-Jul-23 18:00N 59°59' E 021°42'5 9.5
2017-Jul-23 17:30N 60°04' E 021°41'5 9.6
2017-Jul-23 17:00N 60°09' E 021°41'5 9.3
2017-Jul-23 16:30N 60°13' E 021°44'4 7.5
2017-Jul-23 16:00N 60°14' E 021°51'4 7.6
2017-Jul-23 15:30N 60°16' E 021°57'3 6.4
2017-Jul-23 15:01N 60°18' E 022°02'4 8.0
2017-Jul-23 14:30N 60°22' E 022°06'2 4.9
2017-Jul-23 14:00N 60°24' E 022°07'1 2.7
2017-Jul-23 13:30N 60°25' E 022°09'2 3.7
2017-Jul-23 13:01N 60°26' E 022°12'1 1.6
2017-Jul-23 12:28N 60°26' E 022°14'0 0.0
2017-Jul-23 11:58N 60°26' E 022°14'0 0.0
2017-Jul-23 11:28N 60°26' E 022°14'0 0.0
2017-Jul-21 12:18N 60°26' E 022°14'0 0.0
2017-Jul-21 07:36N 60°26' E 022°14'0 0.0
2017-Jul-21 07:30N 60°26' E 022°14'1 1.0
2017-Jul-21 07:00N 60°26' E 022°13'3 6.1
2017-Jul-21 06:30N 60°25' E 022°08'4 7.8
2017-Jul-21 06:00N 60°21' E 022°05'4 7.8
2017-Jul-21 05:30N 60°17' E 022°02'4 7.7
2017-Jul-21 05:00N 60°16' E 021°55'4 7.9
2017-Jul-21 04:30N 60°14' E 021°47'3 7.0
2017-Jul-21 04:00N 60°12' E 021°42'4 8.0
2017-Jul-21 03:30N 60°08' E 021°41'4 7.8
2017-Jul-21 03:00N 60°04' E 021°41'4 8.1
2017-Jul-21 02:30N 60°00' E 021°42'4 7.8
2017-Jul-21 02:00N 59°56' E 021°39'4 7.9
2017-Jul-21 01:30N 59°54' E 021°33'4 8.1
2017-Jul-21 01:00N 59°52' E 021°26'4 7.7
2017-Jul-21 00:30N 59°49' E 021°21'4 7.7
2017-Jul-21 00:00N 59°45' E 021°21'3 6.3
2017-Jul-20 23:30N 59°42' E 021°20'2 4.9
2017-Jul-20 23:00N 59°40' E 021°22'3 5.0
2017-Jul-20 22:30N 59°38' E 021°24'2 4.0
2017-Jul-20 22:00N 59°37' E 021°28'3 5.2
2017-Jul-20 21:30N 59°37' E 021°33'3 5.2
2017-Jul-20 21:01N 59°37' E 021°38'3 6.1
2017-Jul-20 20:30N 59°37' E 021°44'2 4.1
2017-Jul-20 20:00N 59°37' E 021°48'3 5.4
2017-Jul-20 19:30N 59°37' E 021°53'2 4.5
2017-Jul-20 19:00N 59°37' E 021°58'2 4.9
2017-Jul-20 18:30N 59°37' E 022°03'3 5.5
2017-Jul-20 18:00N 59°37' E 022°08'4 7.2
2017-Jul-20 17:30N 59°37' E 022°15'4 7.3
2017-Jul-20 17:01N 59°37' E 022°22'4 7.2
2017-Jul-20 16:30N 59°37' E 022°29'4 7.4
2017-Jul-20 16:00N 59°37' E 022°37'4 7.5
2017-Jul-20 15:30N 59°37' E 022°44'4 7.7
2017-Jul-20 15:00N 59°37' E 022°52'8 7.6
2017-Jul-20 14:00N 59°37' E 023°07'4 7.3
2017-Jul-20 13:30N 59°38' E 023°14'4 7.7
2017-Jul-20 13:00N 59°38' E 023°22'4 7.4
2017-Jul-20 12:30N 59°38' E 023°29'4 7.3
2017-Jul-20 12:00N 59°38' E 023°36'4 7.4
2017-Jul-20 11:30N 59°39' E 023°43'4 7.5
2017-Jul-20 11:00N 59°39' E 023°51'4 7.8
2017-Jul-20 10:27N 59°39' E 023°59'4 8.0
2017-Jul-20 10:00N 59°39' E 024°06'4 7.9
2017-Jul-20 09:30N 59°39' E 024°14'4 8.4
2017-Jul-20 09:00N 59°40' E 024°22'4 8.2
2017-Jul-20 08:30N 59°39' E 024°31'4 8.0
2017-Jul-20 08:00N 59°38' E 024°38'4 7.2
2017-Jul-20 07:30N 59°35' E 024°42'3 6.1
2017-Jul-20 07:00N 59°32' E 024°44'4 7.6
2017-Jul-20 06:30N 59°28' E 024°45'1 2.1
2017-Jul-20 05:59N 59°27' E 024°44'0 0.0
2017-Jul-18 22:44N 59°27' E 024°44'0 1.4
2017-Jul-18 22:30N 59°28' E 024°44'2 3.9
2017-Jul-18 22:01N 59°29' E 024°45'3 6.1
2017-Jul-18 21:31N 59°32' E 024°43'3 5.7
2017-Jul-18 21:01N 59°35' E 024°41'2 3.2
2017-Jul-18 20:31N 59°37' E 024°41'2 3.6
2017-Jul-18 20:00N 59°38' E 024°43'1 2.2
2017-Jul-18 19:30N 59°39' E 024°45'1 2.5
2017-Jul-18 19:00N 59°37' E 024°43'2 3.8
2017-Jul-18 18:31N 59°39' E 024°43'12 0.4
2017-Jul-17 08:01N 59°27' E 024°44'0 0.5
2017-Jul-17 08:01N 59°27' E 024°44'0 0.7
2017-Jul-17 07:30N 59°28' E 024°44'3 5.7
2017-Jul-17 07:00N 59°30' E 024°44'4 7.3
2017-Jul-17 06:31N 59°34' E 024°41'4 7.7
2017-Jul-17 06:01N 59°37' E 024°38'2 4.9
2017-Jul-17 05:30N 59°40' E 024°38'2 4.5
2017-Jul-17 05:00N 59°42' E 024°39'2 4.4
2017-Jul-17 04:31N 59°44' E 024°39'2 4.7
2017-Jul-17 04:00N 59°46' E 024°39'2 4.0
2017-Jul-17 03:30N 59°48' E 024°42'2 4.4
2017-Jul-17 03:01N 59°49' E 024°46'2 4.3
2017-Jul-17 02:30N 59°50' E 024°50'3 5.1
2017-Jul-17 02:00N 59°51' E 024°54'2 4.5
2017-Jul-17 01:31N 59°52' E 024°58'2 4.6
2017-Jul-17 01:01N 59°52' E 025°03'3 5.3
2017-Jul-17 00:31N 59°53' E 025°08'3 5.0
2017-Jul-17 00:00N 59°53' E 025°13'2 4.8
2017-Jul-16 23:30N 59°53' E 025°18'2 4.9
2017-Jul-16 23:01N 59°53' E 025°23'3 5.2
2017-Jul-16 22:30N 59°54' E 025°28'3 5.1
2017-Jul-16 22:01N 59°54' E 025°33'3 5.4
2017-Jul-16 21:30N 59°54' E 025°38'3 5.6
2017-Jul-16 21:00N 59°55' E 025°44'3 5.8
2017-Jul-16 20:30N 59°55' E 025°49'2 4.6
2017-Jul-16 20:00N 59°56' E 025°54'2 4.3
2017-Jul-16 19:30N 59°57' E 025°58'3 5.4
2017-Jul-16 19:00N 59°58' E 026°03'3 5.6
2017-Jul-16 18:31N 59°59' E 026°08'3 5.6
2017-Jul-16 18:01N 60°01' E 026°12'3 6.3
2017-Jul-16 17:31N 60°04' E 026°15'3 6.9
2017-Jul-16 17:00N 60°07' E 026°18'3 6.8
2017-Jul-16 16:30N 60°10' E 026°21'3 6.6
2017-Jul-16 16:00N 60°13' E 026°24'3 5.9
2017-Jul-16 15:31N 60°15' E 026°28'3 5.9
2017-Jul-16 15:01N 60°17' E 026°32'3 5.9
2017-Jul-16 14:30N 60°19' E 026°36'3 5.5
2017-Jul-16 14:00N 60°21' E 026°40'3 6.1
2017-Jul-16 13:30N 60°23' E 026°46'3 5.8
2017-Jul-16 13:00N 60°24' E 026°51'3 5.3
2017-Jul-16 12:30N 60°25' E 026°56'2 4.9
2017-Jul-16 12:00N 60°27' E 026°58'1 2.4
2017-Jul-16 11:31N 60°28' E 026°58'0 0.5
2017-Jul-16 11:00N 60°28' E 026°57'  
Track history (hours):
 
Tides and Currents Weather Stations Pressure Air Temp Water Temp Dewpoint Dewpoint Depression Visibility Wind Speed Wind Dir Waves Ship Positions

Cisne Branco (Brazil)

Last reported at 2017-Jul-25 20:49 UTC. Time now 2017-Jul-28 06:37 UTC.
Position N 56°25' E 019°03'.

Length 78 m; draft 4.8 m.

Type: Sailing vessel. MMSI: 710428000.

Date/timePositionNaut miles runAvg speedWind from/ knotsBaromVisibWave heightAir tempDewpointWater temp
2017-Jul-25 20:49N 56°25' E 019°03'1610.0
2017-Jul-25 19:14N 56°35' E 018°41'2 9.3
2017-Jul-25 19:00N 56°37' E 018°38'6 9.1
2017-Jul-25 18:21N 56°40' E 018°29'5 8.4
2017-Jul-25 17:48N 56°43' E 018°22'2 7.8
2017-Jul-25 17:31N 56°44' E 018°19'138 6.5
2017-Jul-24 20:27N 58°56' E 019°33'4 7.6
2017-Jul-24 19:58N 58°59' E 019°39'4 7.5
2017-Jul-24 19:24N 59°02' E 019°45'3 6.9
2017-Jul-24 18:59N 59°04' E 019°49'4 7.1
2017-Jul-24 18:30N 59°06' E 019°54'3 7.0
2017-Jul-24 18:00N 59°08' E 019°60'3 6.7
2017-Jul-24 17:30N 59°10' E 020°05'4 6.9
2017-Jul-24 16:59N 59°12' E 020°10'3 7.2
2017-Jul-24 16:30N 59°14' E 020°15'4 7.8
2017-Jul-24 16:01N 59°16' E 020°22'23 7.7
2017-Jul-24 13:00N 59°31' E 020°57'3 6.2
2017-Jul-24 12:31N 59°33' E 021°01'3 5.9
2017-Jul-24 12:01N 59°35' E 021°06'3 6.2
2017-Jul-24 11:31N 59°36' E 021°11'3 5.7
2017-Jul-24 11:01N 59°38' E 021°16'2 3.4
2017-Jul-24 10:31N 59°39' E 021°18'3 5.6
2017-Jul-24 10:01N 59°42' E 021°16'2 3.5
2017-Jul-24 09:31N 59°43' E 021°13'1 1.2
2017-Jul-24 09:01N 59°44' E 021°14'0 0.5
2017-Jul-24 08:28N 59°44' E 021°14'0 0.0
2017-Jul-24 08:00N 59°44' E 021°14'0 0.0
2017-Jul-24 07:30N 59°44' E 021°14'0 0.0
2017-Jul-24 06:58N 59°44' E 021°14'0 0.0
2017-Jul-24 06:29N 59°44' E 021°14'0 0.0
2017-Jul-24 05:58N 59°44' E 021°14'0 0.0
2017-Jul-24 05:30N 59°44' E 021°14'0 0.0
2017-Jul-24 04:57N 59°44' E 021°14'0 0.0
2017-Jul-24 04:29N 59°44' E 021°14'0 0.0
2017-Jul-24 03:59N 59°44' E 021°14'0 0.0
2017-Jul-24 03:30N 59°44' E 021°14'0 0.0
2017-Jul-24 03:00N 59°44' E 021°14'0 0.0
2017-Jul-24 02:28N 59°44' E 021°14'0 0.0
2017-Jul-24 01:59N 59°44' E 021°14'0 0.0
2017-Jul-24 01:30N 59°44' E 021°14'0 0.0
2017-Jul-24 00:59N 59°44' E 021°14'0 0.0
2017-Jul-24 00:31N 59°44' E 021°14'0 0.0
2017-Jul-23 23:59N 59°44' E 021°14'0 0.0
2017-Jul-23 23:28N 59°44' E 021°14'0 0.0
2017-Jul-23 22:58N 59°44' E 021°14'0 0.0
2017-Jul-23 22:29N 59°44' E 021°14'0 0.0
2017-Jul-23 21:59N 59°44' E 021°14'0 0.0
2017-Jul-23 21:29N 59°44' E 021°14'0 0.1
2017-Jul-23 21:00N 59°44' E 021°14'2 3.1
2017-Jul-23 20:30N 59°44' E 021°17'3 6.5
2017-Jul-23 20:00N 59°47' E 021°21'4 8.1
2017-Jul-23 19:30N 59°50' E 021°24'4 8.5
2017-Jul-23 19:00N 59°53' E 021°31'4 8.7
2017-Jul-23 18:30N 59°55' E 021°38'4 8.7
2017-Jul-23 18:00N 59°59' E 021°42'5 9.5
2017-Jul-23 17:30N 60°04' E 021°41'5 9.6
2017-Jul-23 17:00N 60°09' E 021°41'5 9.3
2017-Jul-23 16:30N 60°13' E 021°44'4 7.5
2017-Jul-23 16:00N 60°14' E 021°51'4 7.6
2017-Jul-23 15:30N 60°16' E 021°57'3 6.4
2017-Jul-23 15:01N 60°18' E 022°02'4 8.0
2017-Jul-23 14:30N 60°22' E 022°06'2 4.9
2017-Jul-23 14:00N 60°24' E 022°07'1 2.7
2017-Jul-23 13:30N 60°25' E 022°09'2 3.7
2017-Jul-23 13:01N 60°26' E 022°12'1 1.6
2017-Jul-23 12:28N 60°26' E 022°14'0 0.0
2017-Jul-23 11:58N 60°26' E 022°14'0 0.0
2017-Jul-23 11:28N 60°26' E 022°14'0 0.0
2017-Jul-21 12:18N 60°26' E 022°14'0 0.0
2017-Jul-21 07:36N 60°26' E 022°14'0 0.0
2017-Jul-21 07:30N 60°26' E 022°14'1 1.0
2017-Jul-21 07:00N 60°26' E 022°13'3 6.1
2017-Jul-21 06:30N 60°25' E 022°08'4 7.8
2017-Jul-21 06:00N 60°21' E 022°05'4 7.8
2017-Jul-21 05:30N 60°17' E 022°02'4 7.7
2017-Jul-21 05:00N 60°16' E 021°55'4 7.9
2017-Jul-21 04:30N 60°14' E 021°47'3 7.0
2017-Jul-21 04:00N 60°12' E 021°42'4 8.0
2017-Jul-21 03:30N 60°08' E 021°41'4 7.8
2017-Jul-21 03:00N 60°04' E 021°41'4 8.1
2017-Jul-21 02:30N 60°00' E 021°42'4 7.8
2017-Jul-21 02:00N 59°56' E 021°39'4 7.9
2017-Jul-21 01:30N 59°54' E 021°33'4 8.1
2017-Jul-21 01:00N 59°52' E 021°26'4 7.7
2017-Jul-21 00:30N 59°49' E 021°21'4 7.7
2017-Jul-21 00:00N 59°45' E 021°21'3 6.3
2017-Jul-20 23:30N 59°42' E 021°20'2 4.9
2017-Jul-20 23:00N 59°40' E 021°22'3 5.0
2017-Jul-20 22:30N 59°38' E 021°24'2 4.0
2017-Jul-20 22:00N 59°37' E 021°28'3 5.2
2017-Jul-20 21:30N 59°37' E 021°33'3 5.2
2017-Jul-20 21:01N 59°37' E 021°38'3 6.1
2017-Jul-20 20:30N 59°37' E 021°44'2 4.1
2017-Jul-20 20:00N 59°37' E 021°48'3 5.4
2017-Jul-20 19:30N 59°37' E 021°53'2 4.5
2017-Jul-20 19:00N 59°37' E 021°58'2 4.9
2017-Jul-20 18:30N 59°37' E 022°03'3 5.5
2017-Jul-20 18:00N 59°37' E 022°08'4 7.2
2017-Jul-20 17:30N 59°37' E 022°15'4 7.3
2017-Jul-20 17:01N 59°37' E 022°22'4 7.2
2017-Jul-20 16:30N 59°37' E 022°29'4 7.4
2017-Jul-20 16:00N 59°37' E 022°37'4 7.5
2017-Jul-20 15:30N 59°37' E 022°44'4 7.7
2017-Jul-20 15:00N 59°37' E 022°52'8 7.6
2017-Jul-20 14:00N 59°37' E 023°07'4 7.3
2017-Jul-20 13:30N 59°38' E 023°14'4 7.7
2017-Jul-20 13:00N 59°38' E 023°22'4 7.4
2017-Jul-20 12:30N 59°38' E 023°29'4 7.3
2017-Jul-20 12:00N 59°38' E 023°36'4 7.4
2017-Jul-20 11:30N 59°39' E 023°43'4 7.5
2017-Jul-20 11:00N 59°39' E 023°51'4 7.8
2017-Jul-20 10:27N 59°39' E 023°59'4 8.0
2017-Jul-20 10:00N 59°39' E 024°06'4 7.9
2017-Jul-20 09:30N 59°39' E 024°14'4 8.4
2017-Jul-20 09:00N 59°40' E 024°22'4 8.2
2017-Jul-20 08:30N 59°39' E 024°31'4 8.0
2017-Jul-20 08:00N 59°38' E 024°38'4 7.2
2017-Jul-20 07:30N 59°35' E 024°42'3 6.1
2017-Jul-20 07:00N 59°32' E 024°44'4 7.6
2017-Jul-20 06:30N 59°28' E 024°45'1 2.1
2017-Jul-20 05:59N 59°27' E 024°44'0 0.0
2017-Jul-18 22:44N 59°27' E 024°44'0 1.4
2017-Jul-18 22:30N 59°28' E 024°44'2 3.9
2017-Jul-18 22:01N 59°29' E 024°45'3 6.1
2017-Jul-18 21:31N 59°32' E 024°43'3 5.7
2017-Jul-18 21:01N 59°35' E 024°41'2 3.2
2017-Jul-18 20:31N 59°37' E 024°41'2 3.6
2017-Jul-18 20:00N 59°38' E 024°43'1 2.2
2017-Jul-18 19:30N 59°39' E 024°45'1 2.5
2017-Jul-18 19:00N 59°37' E 024°43'2 3.8
2017-Jul-18 18:31N 59°39' E 024°43'12 0.4
2017-Jul-17 08:01N 59°27' E 024°44'0 0.5
2017-Jul-17 08:01N 59°27' E 024°44'0 0.7
2017-Jul-17 07:30N 59°28' E 024°44'3 5.7
2017-Jul-17 07:00N 59°30' E 024°44'4 7.3
2017-Jul-17 06:31N 59°34' E 024°41'4 7.7
2017-Jul-17 06:01N 59°37' E 024°38'2 4.9
2017-Jul-17 05:30N 59°40' E 024°38'2 4.5
2017-Jul-17 05:00N 59°42' E 024°39'2 4.4
2017-Jul-17 04:31N 59°44' E 024°39'2 4.7
2017-Jul-17 04:00N 59°46' E 024°39'2 4.0
2017-Jul-17 03:30N 59°48' E 024°42'2 4.4
2017-Jul-17 03:01N 59°49' E 024°46'2 4.3
2017-Jul-17 02:30N 59°50' E 024°50'3 5.1
2017-Jul-17 02:00N 59°51' E 024°54'2 4.5
2017-Jul-17 01:31N 59°52' E 024°58'2 4.6
2017-Jul-17 01:01N 59°52' E 025°03'3 5.3
2017-Jul-17 00:31N 59°53' E 025°08'3 5.0
2017-Jul-17 00:00N 59°53' E 025°13'2 4.8
2017-Jul-16 23:30N 59°53' E 025°18'2 4.9
2017-Jul-16 23:01N 59°53' E 025°23'3 5.2
2017-Jul-16 22:30N 59°54' E 025°28'3 5.1
2017-Jul-16 22:01N 59°54' E 025°33'3 5.4
2017-Jul-16 21:30N 59°54' E 025°38'3 5.6
2017-Jul-16 21:00N 59°55' E 025°44'3 5.8
2017-Jul-16 20:30N 59°55' E 025°49'2 4.6
2017-Jul-16 20:00N 59°56' E 025°54'2 4.3
2017-Jul-16 19:30N 59°57' E 025°58'3 5.4
2017-Jul-16 19:00N 59°58' E 026°03'3 5.6
2017-Jul-16 18:31N 59°59' E 026°08'3 5.6
2017-Jul-16 18:01N 60°01' E 026°12'3 6.3
2017-Jul-16 17:31N 60°04' E 026°15'3 6.9
2017-Jul-16 17:00N 60°07' E 026°18'3 6.8
2017-Jul-16 16:30N 60°10' E 026°21'3 6.6
2017-Jul-16 16:00N 60°13' E 026°24'3 5.9
2017-Jul-16 15:31N 60°15' E 026°28'3 5.9
2017-Jul-16 15:01N 60°17' E 026°32'3 5.9
2017-Jul-16 14:30N 60°19' E 026°36'3 5.5
2017-Jul-16 14:00N 60°21' E 026°40'3 6.1
2017-Jul-16 13:30N 60°23' E 026°46'3 5.8
2017-Jul-16 13:00N 60°24' E 026°51'3 5.3
2017-Jul-16 12:30N 60°25' E 026°56'2 4.9
2017-Jul-16 12:00N 60°27' E 026°58'1 2.4
2017-Jul-16 11:31N 60°28' E 026°58'0 0.5
2017-Jul-16 11:00N 60°28' E 026°57'  

Dump ship's entire track history